Weather History for Saint Paul Island, AK

Change the Weather History Date:

Wednesday, February 13, 2013

  Actual Average Record
Temperature  
Mean Temperature 9 °F 24 °F  
Max Temperature 14 °F 29 °F 39 °F (1980)
Min Temperature 3 °F 20 °F -9 °F (1972)
Degree Days  
Heating Degree Days 56 41  
Month to date heating degree days 595 533  
Since 1 July heating degree days 6663 6312  
Cooling Degree Days 0    
Month to date cooling degree days 0  
Year to date cooling degree days 0  
Moisture  
Dew Point 4 °F    
Average Humidity 0    
Maximum Humidity 0    
Minimum Humidity 0    
Precipitation  
Precipitation T in 0.05 in 0.24 in (1956)
Month to date precipitation 0.69 0.65  
Year to date precipitation 2.10 2.23  
Snow  
Snow T in 0.40 in 3.70 in (2002)
Month to date snowfall 8.4 4.9  
Since 1 July snowfall 35.3 39.9  
Snow Depth 16.00 in    
Sea Level Pressure  
Sea Level Pressure 29.81 in    
Wind  
Wind Speed 18 mph (North)    
Max Wind Speed 25 mph    
Max Gust Speed 28 mph    
Visibility 4 miles    
Events Snow    
T = Trace of Precipitation, MM = Missing Value Source: NWS Daily Summary

Daily Weather History Graph

Daily Weather History Graph

Search for Another Location

Airport:

Trip Planner

Search our weather history database for the weather conditions in past years. The results will help you decide how hot, cold, wet, or windy it might be!

Date:

Astronomy

Feb. 13, 2013 Rise Set
Actual Time 9:52 AM AKST 7:18 PM AKST
Civil Twilight 9:12 AM AKST 7:58 PM AKST
Nautical Twilight 8:27 AM AKST 8:43 PM AKST
Astronomical Twilight 7:43 AM AKST 9:27 PM AKST
Moon 10:32 AM AKST (2/13) No Moon Set
Length of Visible Light 10h 45m
Length of Day
9h 25m
Waxing Crescent, 15% of the Moon is Illuminated
Feb 13
Waxing Crescent
Feb 17
First Quarter
Feb 25
Full
Mar 4
Last Quarter
Mar 11
New

Hourly Weather History & Observations

Time (AKST) Temp. Windchill Dew Point Humidity Pressure Visibility Wind Dir Wind Speed Gust Speed Precip Events Conditions
12:05 AM 14.0 °F -1.4 °F 8.6 °F 79% 29.73 in 7.0 mi NW 15.0 mph - 0.00 in Snow Light Snow
12:53 AM 14.0 °F -2.5 °F 9.0 °F 80% 29.74 in 5.0 mi NNW 17.3 mph - 0.00 in Snow Light Snow
1:53 AM 12.9 °F -4.4 °F 9.0 °F 84% 29.74 in 5.0 mi North 18.4 mph - 0.00 in Snow Light Snow
3:53 AM 12.0 °F -6.5 °F 8.1 °F 84% 29.75 in 4.0 mi North 20.7 mph - 0.00 in   Overcast
4:51 AM 12.2 °F -5.3 °F 8.6 °F 85% 29.74 in 4.0 mi NNE 18.4 mph 25.3 mph 0.00 in Snow Light Snow
4:53 AM 12.0 °F -5.1 °F 8.1 °F 84% 29.75 in 4.0 mi NNE 17.3 mph 25.3 mph 0.00 in Snow Light Snow
5:53 AM 12.0 °F -4.5 °F 8.1 °F 84% 29.75 in 4.0 mi NNE 16.1 mph - 0.00 in Snow Light Snow
6:26 AM 10.4 °F -8.6 °F 8.6 °F 92% 29.75 in 2.0 mi North 20.7 mph - 0.00 in Snow Light Snow
6:53 AM 12.0 °F -6.5 °F 9.0 °F 88% 29.75 in 2.0 mi North 20.7 mph - 0.00 in Snow Light Snow
7:00 AM 10.4 °F -9.1 °F 8.6 °F 92% 29.75 in 1.2 mi North 21.9 mph - 0.00 in Snow Light Snow
7:13 AM 10.4 °F -8.6 °F 8.6 °F 92% 29.75 in 2.5 mi North 20.7 mph - 0.00 in Snow Light Snow
7:53 AM 10.9 °F -7.9 °F 8.1 °F 88% 29.76 in 1.8 mi North 20.7 mph - 0.00 in Snow Light Snow
8:13 AM 10.4 °F -9.5 °F 8.6 °F 92% 29.76 in 3.0 mi North 23.0 mph - 0.00 in Snow Light Snow
8:33 AM 10.4 °F -8.6 °F 8.6 °F 92% 29.76 in 2.5 mi North 20.7 mph 26.5 mph 0.00 in Snow Light Snow
8:48 AM 10.4 °F -9.1 °F 6.8 °F 85% 29.77 in 1.5 mi North 21.9 mph - 0.00 in Snow Light Snow
8:53 AM 10.0 °F -8.6 °F 7.0 °F 87% 29.78 in 1.8 mi NNE 19.6 mph - 0.00 in Snow Light Snow
9:16 AM 10.4 °F -9.1 °F 6.8 °F 85% 29.77 in 3.0 mi North 21.9 mph - 0.00 in Snow Blowing Snow
9:53 AM 10.0 °F -7.6 °F 7.0 °F 87% 29.80 in 7.0 mi North 17.3 mph - 0.00 in Snow Light Snow
10:32 AM 10.4 °F -8.6 °F 6.8 °F 85% 29.80 in 2.5 mi North 20.7 mph - 0.00 in Snow Light Snow
10:53 AM 9.0 °F -10.0 °F 7.0 °F 92% 29.81 in 2.0 mi North 19.6 mph - 0.00 in Snow Light Snow
11:06 AM 8.6 °F -11.0 °F 6.8 °F 92% 29.80 in 3.0 mi North 20.7 mph - 0.00 in Snow Light Snow
11:53 AM 9.0 °F -10.5 °F 5.0 °F 84% 29.81 in 7.0 mi North 20.7 mph - 0.00 in Snow Blowing Snow
12:53 PM 8.1 °F -12.2 °F 3.9 °F 83% 29.82 in 4.0 mi North 21.9 mph - N/A Snow Blowing Snow
1:53 PM 7.0 °F -12.1 °F 3.0 °F 84% 29.84 in 5.0 mi North 18.4 mph - N/A Snow Blowing Snow
2:43 PM 6.8 °F -12.4 °F 3.2 °F 85% 29.83 in 2.0 mi North 18.4 mph - 0.00 in Snow Light Snow
2:53 PM 7.0 °F -12.1 °F 3.0 °F 84% 29.84 in 4.0 mi North 18.4 mph - 0.00 in Snow Blowing Snow
3:22 PM 6.8 °F -11.3 °F 1.4 °F 79% 29.83 in 8.0 mi North 16.1 mph - N/A   Mostly Cloudy
3:53 PM 7.0 °F -11.0 °F 3.0 °F 84% 29.84 in 4.0 mi North 16.1 mph - 0.00 in Snow Light Snow
4:22 PM 6.8 °F -11.8 °F 3.2 °F 85% 29.84 in 2.0 mi North 17.3 mph - 0.00 in Snow Light Snow
4:45 PM 6.8 °F -11.8 °F 3.2 °F 85% 29.84 in 4.0 mi North 17.3 mph - 0.00 in Snow Blowing Snow
4:53 PM 7.0 °F -11.0 °F 1.9 °F 80% 29.84 in 3.0 mi North 16.1 mph - 0.00 in Snow Blowing Snow
5:11 PM 6.8 °F -11.8 °F 3.2 °F 85% 29.83 in 1.8 mi North 17.3 mph - 0.00 in Snow Light Snow
5:21 PM 6.8 °F -11.3 °F 3.2 °F 85% 29.83 in 2.5 mi North 16.1 mph - 0.00 in Snow Light Snow
5:32 PM 8.6 °F -8.9 °F 3.2 °F 79% 29.84 in 1.8 mi North 16.1 mph - 0.00 in Snow Light Snow
5:38 PM 8.6 °F -8.3 °F 3.2 °F 79% 29.84 in 3.0 mi North 15.0 mph - 0.00 in Snow Light Snow
5:53 PM 8.1 °F -9.6 °F 3.0 °F 80% 29.84 in 2.0 mi North 16.1 mph - 0.00 in Snow Light Snow
6:11 PM 8.6 °F -10.0 °F 3.2 °F 79% 29.84 in 5.0 mi North 18.4 mph - 0.00 in Snow Light Snow
6:27 PM 8.6 °F -10.5 °F 3.2 °F 79% 29.83 in 1.8 mi North 19.6 mph - 0.00 in Snow Light Snow
6:37 PM 8.6 °F -10.0 °F 3.2 °F 79% 29.84 in 3.0 mi North 18.4 mph - 0.00 in Snow Blowing Snow
6:53 PM 8.1 °F -10.7 °F 3.0 °F 80% 29.84 in 4.0 mi North 18.4 mph - 0.00 in Snow Blowing Snow
7:16 PM 8.6 °F -10.0 °F 3.2 °F 79% 29.84 in 2.0 mi North 18.4 mph - 0.00 in Snow Light Snow
7:33 PM 6.8 °F -11.3 °F 3.2 °F 85% 29.85 in 6.0 mi North 16.1 mph - 0.00 in   Overcast
7:53 PM 8.1 °F -11.2 °F 3.0 °F 80% 29.85 in 5.0 mi NNW 19.6 mph - 0.00 in Snow Light Snow
8:21 PM 6.8 °F -12.4 °F 3.2 °F 85% 29.85 in 2.0 mi North 18.4 mph - 0.00 in Snow Light Snow
8:36 PM 6.8 °F -12.4 °F 1.4 °F 79% 29.85 in 3.0 mi North 18.4 mph - 0.00 in Snow Light Snow
8:43 PM 6.8 °F -12.4 °F 3.2 °F 85% 29.85 in 2.5 mi North 18.4 mph - 0.00 in Snow Light Snow
8:53 PM 6.1 °F -12.2 °F 1.9 °F 83% 29.86 in 4.0 mi North 16.1 mph - 0.00 in   Overcast
9:38 PM 3.2 °F -17.1 °F -0.4 °F 85% 29.86 in 10.0 mi North 18.4 mph - 0.00 in   Scattered Clouds
9:53 PM 3.9 °F -15.0 °F -0.0 °F 84% 29.87 in 7.0 mi North 16.1 mph - 0.00 in   Scattered Clouds
10:01 PM 3.2 °F -17.1 °F -0.4 °F 85% 29.86 in 8.0 mi North 18.4 mph - N/A   Mostly Cloudy
10:28 PM 3.2 °F -16.5 °F -0.4 °F 85% 29.86 in 10.0 mi North 17.3 mph - 0.00 in   Scattered Clouds
10:38 PM 3.2 °F -16.5 °F -0.4 °F 85% 29.86 in 9.0 mi North 17.3 mph - 0.00 in   Mostly Cloudy
10:53 PM 3.9 °F -15.0 °F -0.0 °F 84% 29.87 in 10.0 mi North 16.1 mph - 0.00 in   Overcast
11:10 PM 3.2 °F -16.5 °F 1.4 °F 92% 29.86 in 8.0 mi North 17.3 mph - N/A   Overcast
11:53 PM 5.0 °F -14.2 °F 1.0 °F 84% 29.88 in 6.0 mi NNW 17.3 mph - 0.00 in Snow Blowing Snow